[[{"header":{"parameterUnit":"m.s-1","parameterCategory":1,"la1":30.2991,"la2":30.254,"lo1":-89.0895,"lo2":-89.0444,"dx":0.0017,"dy":0.0017,"nx":28,"ny":28,"refTime":"2023-01-20T09:00:00:Z","depth":0,"parameterNumber":2,"parameterNumberName":"U-component_of_WINDS"},"data":[0,0,0,0,0,0,0,0,0,0,0,0,0,0,0,0,0,0,0,0,0,0,0,0,0,0,0,0,0,0,0,0,0,0,0,0,0,0,0,0,0,0,0,0,0,0,0,0,0,0,0,0,0,0,0,0,0,0,-5.8098,-5.8099,0,-5.8173,-5.8174,-5.8175,-5.8049,-5.8045,-5.8041,-5.8037,-5.8118,-5.8124,-5.813,0,0,0,0,0,0,0,0,0,0,0,0,0,-5.7851,-5.7857,-5.8098,-5.8099,-5.81,-5.8173,-5.8174,-5.8175,-5.805,-5.8045,-5.804,-5.8035,-5.8116,-5.8123,-5.8131,0,0,0,0,0,0,0,0,0,0,0,0,0,-5.7946,-5.7858,-5.8098,-5.8046,-5.8042,-5.8172,-5.8174,-5.8175,-5.8051,-5.8045,-5.8038,-5.8032,-5.8114,-5.8123,-5.8132,-5.8317,0,0,-5.816,-5.8164,0,0,0,0,0,0,0,0,-5.7941,-5.7955,-5.8053,-5.805,-5.8046,-5.8095,-5.8116,-5.8223,-5.8053,-5.8048,-5.8037,-5.8029,-5.8116,-5.8124,-5.8153,-5.8321,-5.8324,-5.8161,-5.8166,-5.817,-5.8173,0,0,0,0,0,0,0,-5.7934,-5.7951,-5.8128,-5.8055,-5.805,-5.8021,-5.8027,-5.8136,-5.8117,-5.8048,-5.8039,-5.8049,-5.8113,-5.8144,-5.8154,-5.8325,-5.816,-5.8169,-5.8174,-5.8178,-5.8648,-5.8654,0,0,0,0,0,0,-5.7933,-5.7947,-5.8125,-5.813,-5.7976,-5.8031,-5.8038,-5.8086,-5.8116,-5.8114,-5.8055,-5.8043,-5.8132,-5.8143,-5.8156,-5.8373,-5.817,-5.8179,-5.8184,-5.8641,-5.8649,-5.8657,0,0,0,0,0,0,-5.7929,-5.7951,-5.8122,-5.8036,-5.8055,-5.8042,-5.8097,-5.8091,-5.8122,-5.8121,-5.8117,-5.809,-5.8127,-5.8143,-5.8277,-5.8374,-5.8183,-5.8191,-5.8633,-5.8644,-5.8653,-5.881,0,0,0,0,0,0,-5.7922,-5.795,-5.8019,-5.8038,-5.806,-5.8241,-5.8103,-5.8097,-5.8138,-5.8123,-5.8153,-5.8152,-5.8123,-5.8264,-5.8286,-5.8383,-5.8198,-5.8624,-5.8638,-5.865,-5.8796,-5.8825,-5.8849,0,0,0,0,0,-5.7914,-5.8061,-5.8023,-5.8045,-5.8146,-5.8247,-5.826,-5.8223,-5.8146,-5.8216,-5.8215,-5.8151,-5.8361,-5.8279,-5.8303,-5.8404,-5.8618,-5.8634,-5.8649,-5.8784,-5.8819,-5.8848,0,0,0,0,0,0,-5.8055,-5.8063,-5.802,-5.8178,-5.8213,-5.8226,-5.8312,-5.8261,-5.8319,-5.8304,-5.8257,-5.8265,-5.8408,-5.842,-5.8329,-5.8585,-5.8476,-5.8498,-5.8571,-5.8604,-5.863,-5.8623,-5.8206,0,0,0,0,0,-5.8104,-5.8184,-5.8187,-5.8326,-5.8346,-5.8327,-5.8369,-5.8338,-5.8372,-5.8386,-5.8395,-5.8433,-5.8506,-5.8556,-5.8625,-5.8798,-5.8802,-5.888,-5.8906,-5.8928,-5.8946,-5.9038,-5.9072,-5.8708,-5.8708,-5.8708,0,0,-5.8207,-5.8221,-5.8275,-5.8355,-5.8378,-5.8462,-5.834,-5.8435,-5.8497,-5.8401,-5.8527,-5.8536,-5.8574,-5.8728,-5.8797,-5.8743,-5.9048,-5.8948,-5.8965,-5.8972,-5.9057,-5.9092,-5.9122,-5.8719,-5.8717,-5.8715,0,0,-5.8437,-5.8457,-5.8573,-5.8599,-5.8635,-5.8621,-5.865,-5.8671,-5.8672,-5.8798,-5.8727,-5.8802,-5.8931,-5.8961,-5.8993,-5.9236,-5.9178,-5.926,-5.9397,-5.9486,-5.9515,-5.954,-5.9624,-5.9656,-5.9278,-5.9279,-5.9279,0,-5.856,-5.8683,-5.8641,-5.874,-5.8777,-5.8694,-5.8812,-5.884,-5.8897,-5.8925,-5.8864,-5.9023,-5.9044,-5.9203,-5.9262,-5.9291,-5.9322,-5.9255,-5.9514,-5.9539,-5.9562,-5.9642,-5.9674,-5.9288,-5.9287,-5.9286,-5.9285,0,-5.8833,-5.8919,-5.901,-5.9065,-5.9113,-5.9222,-5.9197,-5.9251,-5.9216,-5.921,-5.9339,-5.936,-5.9431,-5.9467,-5.9435,-5.9622,-5.9587,-5.9521,-5.9411,-5.9606,-5.9681,-5.9711,-5.9302,-5.9298,-5.9296,-5.9293,0,0,-5.9151,-5.9182,-5.9216,-5.9239,-5.9273,-5.934,-5.9446,-5.9513,-5.956,-5.9603,-5.969,-5.9802,-5.974,-5.9777,-5.9748,-5.9827,-6.0015,-5.9751,-5.9751,-5.9797,-6.0221,-6.0269,-6.0305,-5.9979,-5.9984,-5.9989,-6.0217,0,-5.9378,-5.9557,-5.9522,-5.9698,-5.9777,-5.97,-5.9792,-5.9824,-5.9821,-5.9889,-5.9887,-5.9965,-5.988,-5.9901,-5.9976,-5.9977,-6.01,-5.996,-6.0059,-6.0063,-6.0048,-6.0344,-6.0394,-6.0608,-6.0246,-6.0251,-6.0255,0,-5.9666,-5.9717,-5.9901,-5.9921,-5.9953,-6.0036,-6.0095,-6.0161,-6.0196,-6.0188,-6.023,-6.0186,-6.0291,-6.0182,-6.0327,-6.0233,-6.0272,-6.0279,-6.0286,-6.0291,-6.0168,-6.0355,-6.0676,-6.0707,-6.0301,-6.0297,-6.0294,0,-5.9876,-5.9993,-6.0117,-6.014,-6.0168,-6.0228,-6.0243,-6.0271,-6.0314,-6.0366,-6.0393,-6.0459,-6.0494,-6.0546,-6.0521,-6.0444,-6.0671,-6.0559,-6.0667,-6.0667,-6.0715,-6.0712,-6.1044,-6.0746,-6.0745,-6.0745,-6.0744,0,-6.0131,-6.0246,-6.0211,-6.0288,-6.0414,-6.0374,-6.0501,-6.0507,-6.0533,-6.061,-6.0549,-6.0622,-6.0586,-6.0658,-6.0639,-6.0761,-6.0779,-6.0775,-6.0768,-6.0779,-6.0779,-6.0801,-6.0785,-6.0753,-6.0751,-6.075,-6.0748,0,-6.0387,-6.0369,-6.0498,-6.0514,-6.0521,-6.0613,-6.0627,-6.0699,-6.0692,-6.079,-6.0811,-6.0801,-6.0881,-6.0862,-6.0952,-6.0939,-6.1092,-6.1068,-6.1079,-6.1072,-6.1179,-6.1169,-6.1535,-6.158,-6.1256,-6.1259,-6.1262,0,-6.0549,-6.0635,-6.066,-6.0706,-6.0725,-6.0801,-6.0843,-6.0809,-6.0856,-6.0902,-6.0969,-6.1044,-6.1101,-6.1234,-6.1236,-6.1303,-6.1279,-6.1403,-6.1288,-6.1296,-6.1277,-6.1271,-6.1278,-6.1425,-6.1428,-6.1431,-6.1434,0,-6.0838,-6.0825,-6.0888,-6.0949,-6.1001,-6.1048,-6.1089,-6.1131,-6.1099,-6.1156,-6.1236,-6.1282,-6.1372,-6.1447,-6.1509,-6.1525,-6.1475,-6.147,-6.1498,-6.1508,-6.1509,-6.1507,-6.1138,-6.1461,-6.1458,-6.1456,-6.1455,-6.1454,-6.105,-6.1122,-6.115,-6.1223,-6.125,-6.129,-6.1357,-6.1358,-6.1425,-6.1494,-6.1471,-6.1563,-6.1596,-6.1674,-6.1698,-6.1771,-6.1724,-6.1765,-6.1775,-6.1785,-6.1796,-6.1501,-6.1783,-6.1782,-6.1781,-6.178,-6.178,0,-6.1333,-6.1347,-6.1414,-6.1473,-6.153,-6.1477,-6.152,-6.1572,-6.1653,-6.1688,-6.1746,-6.1839,-6.1911,-6.1919,-6.1987,-6.2044,-6.2022,-6.2063,-6.2056,-6.2061,-6.1836,-6.1803,-6.2079,-6.2079,-6.2079,-6.2079,-6.2079,-6.2079,-6.1486,-6.1605,-6.1595,-6.1727,-6.1741,-6.183,-6.1858,-6.1895,-6.1922,-6.2028,-6.2087,-6.2092,-6.2116,-6.2185,-6.225,-6.225,-6.2277,-6.2326,-6.2318,-6.2107,-6.2077,-6.2048,-6.2017,-6.2333,-6.2334,-6.2536,-6.2538,-6.2539]},{"header":{"parameterUnit":"m.s-1","parameterCategory":1,"la1":30.2991,"la2":30.254,"lo1":-89.0895,"lo2":-89.0444,"dx":0.0017,"dy":0.0017,"nx":28,"ny":28,"refTime":"2023-01-20T09:00:00:Z","depth":0,"parameterNumber":3,"parameterNumberName":"V-component_of_WINDS"},"data":[0,0,0,0,0,0,0,0,0,0,0,0,0,0,0,0,0,0,0,0,0,0,0,0,0,0,0,0,0,0,0,0,0,0,0,0,0,0,0,0,0,0,0,0,0,0,0,0,0,0,0,0,0,0,0,0,0,0,-0.9511,-0.9511,0,-0.9451,-0.945,-0.9449,-0.9404,-0.9403,-0.9403,-0.9402,-0.934,-0.9338,-0.9337,0,0,0,0,0,0,0,0,0,0,0,0,0,-0.9583,-0.9582,-0.9512,-0.9511,-0.951,-0.9451,-0.945,-0.9449,-0.9404,-0.9403,-0.9403,-0.9402,-0.934,-0.9339,-0.9337,0,0,0,0,0,0,0,0,0,0,0,0,0,-0.954,-0.9582,-0.9512,-0.948,-0.9477,-0.9451,-0.945,-0.9449,-0.9404,-0.9403,-0.9403,-0.9402,-0.9341,-0.9339,-0.9337,-0.9338,0,0,-0.9331,-0.933,0,0,0,0,0,0,0,0,-0.9543,-0.9538,-0.9486,-0.9482,-0.9478,-0.9434,-0.9452,-0.9412,-0.9404,-0.9432,-0.9402,-0.9402,-0.9372,-0.9367,-0.9357,-0.9335,-0.9332,-0.9331,-0.933,-0.9329,-0.9328,0,0,0,0,0,0,0,-0.9546,-0.954,-0.9487,-0.9485,-0.948,-0.9467,-0.9461,-0.9444,-0.9406,-0.9429,-0.9426,-0.9419,-0.937,-0.9359,-0.9355,-0.9331,-0.9331,-0.9329,-0.9328,-0.9327,-0.93,-0.9301,0,0,0,0,0,0,-0.9554,-0.9543,-0.9489,-0.9486,-0.951,-0.9467,-0.9459,-0.9449,-0.9406,-0.9399,-0.942,-0.9417,-0.9363,-0.9358,-0.9353,-0.9348,-0.9329,-0.9327,-0.9326,-0.93,-0.9301,-0.9301,0,0,0,0,0,0,-0.9556,-0.955,-0.9492,-0.9513,-0.9505,-0.9466,-0.9455,-0.9448,-0.9438,-0.9399,-0.9391,-0.9416,-0.9362,-0.9356,-0.9341,-0.9345,-0.9326,-0.9324,-0.93,-0.93,-0.9301,-0.934,0,0,0,0,0,0,-0.9558,-0.9551,-0.9552,-0.9514,-0.9504,-0.9482,-0.9455,-0.9447,-0.9435,-0.9431,-0.9394,-0.9387,-0.9361,-0.9344,-0.9339,-0.9342,-0.9323,-0.9299,-0.93,-0.9301,-0.9338,-0.9342,-0.9345,0,0,0,0,0,-0.9561,-0.9566,-0.9552,-0.9546,-0.9505,-0.9483,-0.9477,-0.9447,-0.9435,-0.9435,-0.9409,-0.9388,-0.9345,-0.9343,-0.9337,-0.934,-0.9299,-0.93,-0.9301,-0.9336,-0.9341,-0.9345,0,0,0,0,0,0,-0.9607,-0.9561,-0.9545,-0.9538,-0.9515,-0.9475,-0.9474,-0.9454,-0.9433,-0.943,-0.9393,-0.9385,-0.9373,-0.9355,-0.9353,-0.9335,-0.9319,-0.9319,-0.9348,-0.9352,-0.9356,-0.936,-0.9321,0,0,0,0,0,-0.9617,-0.9603,-0.9563,-0.9561,-0.955,-0.9514,-0.9503,-0.9482,-0.9456,-0.9445,-0.9419,-0.9394,-0.9374,-0.9362,-0.9342,-0.9334,-0.9324,-0.9333,-0.9336,-0.9339,-0.934,-0.933,-0.9333,-0.9304,-0.9304,-0.9304,0,0,-0.9636,-0.9609,-0.9603,-0.9569,-0.9549,-0.9534,-0.9506,-0.9493,-0.9481,-0.9443,-0.9427,-0.9406,-0.9375,-0.9363,-0.9356,-0.9347,-0.9345,-0.9341,-0.9343,-0.9342,-0.9332,-0.9334,-0.9337,-0.9305,-0.9305,-0.9305,0,0,-0.9664,-0.9643,-0.9637,-0.9616,-0.9584,-0.9559,-0.9558,-0.952,-0.9504,-0.9487,-0.9457,-0.9442,-0.941,-0.9388,-0.9372,-0.9386,-0.9365,-0.938,-0.9399,-0.939,-0.9392,-0.9394,-0.9397,-0.9398,-0.9381,-0.9381,-0.9381,0,-0.9692,-0.967,-0.9637,-0.9624,-0.9608,-0.9572,-0.9565,-0.9545,-0.9509,-0.9498,-0.9488,-0.9444,-0.9421,-0.9401,-0.9404,-0.9393,-0.9388,-0.9385,-0.9395,-0.9396,-0.9397,-0.9399,-0.9401,-0.9383,-0.9383,-0.9382,-0.9382,0,-0.9704,-0.9689,-0.9688,-0.9652,-0.9636,-0.9626,-0.959,-0.9577,-0.9556,-0.9531,-0.9512,-0.9482,-0.9454,-0.9447,-0.9427,-0.9423,-0.9418,-0.9402,-0.9385,-0.9403,-0.9404,-0.9404,-0.9386,-0.9385,-0.9384,-0.9384,0,0,-0.9763,-0.9706,-0.9706,-0.9687,-0.9647,-0.9634,-0.962,-0.9591,-0.958,-0.9555,-0.9541,-0.9512,-0.9495,-0.9478,-0.9454,-0.9447,-0.9455,-0.9431,-0.9429,-0.9435,-0.9445,-0.9457,-0.9459,-0.944,-0.944,-0.9441,-0.9447,0,-0.9783,-0.9758,-0.9726,-0.971,-0.9694,-0.9657,-0.9644,-0.9617,-0.9593,-0.9573,-0.9546,-0.9525,-0.9506,-0.9495,-0.9486,-0.9457,-0.9457,-0.9455,-0.9425,-0.9425,-0.9434,-0.946,-0.9474,-0.9482,-0.9448,-0.9448,-0.9448,0,-0.9805,-0.9779,-0.9763,-0.972,-0.9711,-0.9701,-0.967,-0.9653,-0.962,-0.9602,-0.958,-0.9554,-0.9534,-0.9519,-0.949,-0.949,-0.9475,-0.9458,-0.9458,-0.9454,-0.9438,-0.9456,-0.9484,-0.9485,-0.9449,-0.9449,-0.9449,0,-0.9846,-0.9808,-0.9792,-0.9777,-0.9728,-0.9721,-0.97,-0.9666,-0.9649,-0.9621,-0.961,-0.958,-0.9564,-0.9541,-0.9506,-0.9498,-0.948,-0.9462,-0.9463,-0.9464,-0.9462,-0.9462,-0.9487,-0.9453,-0.9453,-0.9453,-0.9453,0,-0.9872,-0.9862,-0.9809,-0.98,-0.9786,-0.9748,-0.9735,-0.9711,-0.968,-0.9663,-0.9629,-0.9613,-0.9568,-0.9546,-0.9519,-0.9498,-0.9491,-0.9475,-0.9467,-0.9477,-0.9479,-0.9468,-0.9466,-0.9454,-0.9453,-0.9453,-0.9453,0,-0.9917,-0.9881,-0.9861,-0.9814,-0.9802,-0.9794,-0.9754,-0.9741,-0.9713,-0.9692,-0.9684,-0.964,-0.9612,-0.9575,-0.9536,-0.9517,-0.9498,-0.9488,-0.951,-0.9505,-0.9508,-0.9508,-0.9526,-0.9525,-0.9493,-0.9493,-0.9494,0,-0.9936,-0.9927,-0.9879,-0.9865,-0.9844,-0.9823,-0.9805,-0.9765,-0.9747,-0.9706,-0.9698,-0.9667,-0.9641,-0.9597,-0.9561,-0.9529,-0.9517,-0.9525,-0.9512,-0.9521,-0.9515,-0.9515,-0.9513,-0.9528,-0.9529,-0.953,-0.953,0,-0.9972,-0.9953,-0.993,-0.9898,-0.9878,-0.9851,-0.9823,-0.9813,-0.9766,-0.9748,-0.9719,-0.9698,-0.9656,-0.9625,-0.9588,-0.9564,-0.9538,-0.9534,-0.9532,-0.9542,-0.9555,-0.9546,-0.9518,-0.9534,-0.9534,-0.9533,-0.9533,-0.9533,-1.0003,-0.9992,-0.9956,-0.9929,-0.9903,-0.9876,-0.9861,-0.983,-0.9805,-0.9768,-0.9745,-0.9716,-0.9679,-0.9626,-0.9603,-0.9578,-0.9568,-0.9566,-0.9566,-0.9566,-0.9568,-0.9559,-0.9571,-0.9571,-0.9571,-0.9571,-0.957,0,-1.0036,-1.0009,-0.9985,-0.9946,-0.9924,-0.9901,-0.9867,-0.985,-0.9825,-0.9792,-0.9766,-0.973,-0.9698,-0.9658,-0.9623,-0.961,-0.9597,-0.9602,-0.9603,-0.9597,-0.958,-0.9584,-0.9613,-0.9613,-0.9613,-0.9613,-0.9613,-0.9613,-1.005,-1.003,-1.0007,-0.9972,-0.9945,-0.9916,-0.9898,-0.9872,-0.9846,-0.9807,-0.9781,-0.9754,-0.9717,-0.9679,-0.9648,-0.9636,-0.9624,-0.9633,-0.9618,-0.9602,-0.9599,-0.9595,-0.9599,-0.9631,-0.9631,-0.9637,-0.9637,-0.9637]}]]